Time,TemperatureF,DewpointF,PressureIn,WindDirection,WindDirectionDegrees,WindSpeedMPH,WindSpeedGustMPH,Humidity,HourlyPrecipIn,Conditions,Clouds,dailyrainin,SoftwareType,DateUTC
2013-06-12 00:04:00,77.9,69.0,29.91,SSE,156,3.0,5.0,75,0.00,,,0.00,weatherlink.com 1.10,2013-06-12 05:04:00,
2013-06-12 00:19:00,77.7,70.0,29.90,WSW,246,5.0,5.0,76,0.00,,,0.00,weatherlink.com 1.10,2013-06-12 05:19:00,
2013-06-12 00:34:00,77.6,70.0,29.90,SSW,205,3.0,6.0,76,0.00,,,0.00,weatherlink.com 1.10,2013-06-12 05:34:00,
2013-06-12 00:49:00,77.4,70.0,29.91,SSE,164,5.0,6.0,77,0.00,,,0.00,weatherlink.com 1.10,2013-06-12 05:49:00,
2013-06-12 01:04:00,77.5,70.0,29.90,South,191,1.0,6.0,77,0.00,,,0.00,weatherlink.com 1.10,2013-06-12 06:04:00,
2013-06-12 01:19:00,77.0,70.0,29.90,SSE,154,2.0,6.0,78,0.00,,,0.00,weatherlink.com 1.10,2013-06-12 06:19:00,
2013-06-12 01:35:00,76.9,70.0,29.89,SW,216,2.0,7.0,79,0.00,,,0.00,weatherlink.com 1.10,2013-06-12 06:35:00,
2013-06-12 01:50:00,77.1,71.0,29.89,South,183,3.0,7.0,80,0.00,,,0.00,weatherlink.com 1.10,2013-06-12 06:50:00,
2013-06-12 02:05:00,77.4,71.0,29.89,SSE,165,1.0,10.0,80,0.00,,,0.00,weatherlink.com 1.10,2013-06-12 07:05:00,
2013-06-12 02:20:00,77.2,71.0,29.89,SSE,164,5.0,9.0,80,0.00,,,0.00,weatherlink.com 1.10,2013-06-12 07:20:00,
2013-06-12 02:35:00,77.0,71.0,29.89,SE,129,1.0,8.0,81,0.00,,,0.00,weatherlink.com 1.10,2013-06-12 07:35:00,
2013-06-12 02:50:00,76.7,71.0,29.89,SSE,149,2.0,5.0,81,0.00,,,0.00,weatherlink.com 1.10,2013-06-12 07:50:00,
2013-06-12 03:05:00,76.5,71.0,29.89,SSW,209,4.0,8.0,82,0.00,,,0.00,weatherlink.com 1.10,2013-06-12 08:05:00,
2013-06-12 03:20:00,76.3,70.0,29.89,SE,146,1.0,6.0,82,0.00,,,0.00,weatherlink.com 1.10,2013-06-12 08:20:00,
2013-06-12 03:35:00,76.0,70.0,29.89,South,169,2.0,8.0,82,0.00,,,0.00,weatherlink.com 1.10,2013-06-12 08:35:00,
2013-06-12 03:50:00,75.6,70.0,29.90,SSW,205,1.0,5.0,83,0.00,,,0.00,weatherlink.com 1.10,2013-06-12 08:50:00,
2013-06-12 04:05:00,75.1,70.0,29.90,SW,228,2.0,5.0,83,0.00,,,0.00,weatherlink.com 1.10,2013-06-12 09:05:00,
2013-06-12 04:20:00,74.8,70.0,29.91,SE,140,1.0,4.0,84,0.00,,,0.00,weatherlink.com 1.10,2013-06-12 09:20:00,
2013-06-12 04:35:00,74.4,69.0,29.91,SSE,159,3.0,4.0,84,0.00,,,0.00,weatherlink.com 1.10,2013-06-12 09:35:00,
2013-06-12 04:50:00,74.0,69.0,29.92,SSE,159,1.0,4.0,85,0.00,,,0.00,weatherlink.com 1.10,2013-06-12 09:50:00,
2013-06-12 05:05:00,73.7,69.0,29.92,SW,228,2.0,4.0,85,0.00,,,0.00,weatherlink.com 1.10,2013-06-12 10:05:00,
2013-06-12 05:20:00,73.4,69.0,29.93,SSE,159,0.0,5.0,85,0.00,,,0.00,weatherlink.com 1.10,2013-06-12 10:20:00,
2013-06-12 05:35:00,73.1,68.0,29.93,SSE,155,0.0,4.0,85,0.00,,,0.00,weatherlink.com 1.10,2013-06-12 10:35:00,
2013-06-12 05:50:00,73.1,68.0,29.93,SW,219,2.0,6.0,85,0.00,,,0.00,weatherlink.com 1.10,2013-06-12 10:50:00,
2013-06-12 06:05:00,73.1,68.0,29.93,SSW,205,3.0,6.0,84,0.00,,,0.00,weatherlink.com 1.10,2013-06-12 11:05:00,
2013-06-12 06:20:00,72.9,68.0,29.94,SW,222,5.0,5.0,84,0.00,,,0.00,weatherlink.com 1.10,2013-06-12 11:20:00,
2013-06-12 06:35:00,72.8,68.0,29.95,South,172,2.0,6.0,84,0.00,,,0.00,weatherlink.com 1.10,2013-06-12 11:35:00,
2013-06-12 06:50:00,72.8,68.0,29.95,WSW,252,3.0,6.0,84,0.00,,,0.00,weatherlink.com 1.10,2013-06-12 11:50:00,
2013-06-12 07:05:00,73.0,68.0,29.96,SW,225,3.0,6.0,84,0.00,,,0.00,weatherlink.com 1.10,2013-06-12 12:05:00,
2013-06-12 07:20:00,73.4,68.0,29.96,SSW,205,2.0,5.0,84,0.00,,,0.00,weatherlink.com 1.10,2013-06-12 12:20:00,
2013-06-12 07:35:00,74.4,69.0,29.97,SSW,196,4.0,8.0,83,0.00,,,0.00,weatherlink.com 1.10,2013-06-12 12:35:00,
2013-06-12 07:51:00,75.8,70.0,29.97,SSE,167,2.0,6.0,81,0.00,,,0.00,weatherlink.com 1.10,2013-06-12 12:51:00,
2013-06-12 08:05:00,76.8,70.0,29.98,SW,214,5.0,7.0,79,0.00,,,0.00,weatherlink.com 1.10,2013-06-12 13:05:00,
2013-06-12 08:20:00,77.8,70.0,29.98,SE,144,5.0,8.0,77,0.00,,,0.00,weatherlink.com 1.10,2013-06-12 13:20:00,
2013-06-12 08:35:00,78.9,71.0,29.98,SW,217,3.0,10.0,76,0.00,,,0.00,weatherlink.com 1.10,2013-06-12 13:35:00,
2013-06-12 08:50:00,79.8,71.0,29.99,WSW,240,3.0,11.0,74,0.00,,,0.00,weatherlink.com 1.10,2013-06-12 13:50:00,
2013-06-12 09:05:00,80.2,72.0,29.99,SSW,208,4.0,10.0,75,0.00,,,0.00,weatherlink.com 1.10,2013-06-12 14:05:00,
2013-06-12 09:21:00,81.1,72.0,29.99,SW,236,8.0,12.0,73,0.00,,,0.00,weatherlink.com 1.10,2013-06-12 14:21:00,
2013-06-12 09:36:00,82.3,72.0,29.99,WSW,238,5.0,9.0,72,0.00,,,0.00,weatherlink.com 1.10,2013-06-12 14:36:00,
2013-06-12 09:51:00,83.1,73.0,29.99,SW,218,6.0,10.0,72,0.00,,,0.00,weatherlink.com 1.10,2013-06-12 14:51:00,
2013-06-12 10:06:00,83.4,72.0,29.99,SW,232,7.0,12.0,69,0.00,,,0.00,weatherlink.com 1.10,2013-06-12 15:06:00,
2013-06-12 10:21:00,83.9,72.0,29.99,SW,233,5.0,15.0,68,0.00,,,0.00,weatherlink.com 1.10,2013-06-12 15:21:00,
2013-06-12 10:36:00,84.5,73.0,29.99,SW,221,2.0,12.0,68,0.00,,,0.00,weatherlink.com 1.10,2013-06-12 15:36:00,
2013-06-12 10:51:00,84.8,73.0,29.99,SSW,195,3.0,12.0,67,0.00,,,0.00,weatherlink.com 1.10,2013-06-12 15:51:00,
2013-06-12 11:06:00,85.5,72.0,29.99,WSW,250,5.0,13.0,65,0.00,,,0.00,weatherlink.com 1.10,2013-06-12 16:06:00,
2013-06-12 11:21:00,85.9,72.0,29.99,SSW,205,3.0,14.0,64,0.00,,,0.00,weatherlink.com 1.10,2013-06-12 16:21:00,
2013-06-12 11:36:00,86.8,73.0,29.99,SSW,203,6.0,12.0,64,0.00,,,0.00,weatherlink.com 1.10,2013-06-12 16:36:00,
2013-06-12 11:51:00,87.4,73.0,29.99,SW,236,4.0,11.0,62,0.00,,,0.00,weatherlink.com 1.10,2013-06-12 16:51:00,
2013-06-12 12:06:00,87.3,72.0,29.98,SW,232,4.0,17.0,61,0.00,,,0.00,weatherlink.com 1.10,2013-06-12 17:06:00,
2013-06-12 12:21:00,87.7,72.0,29.98,SW,222,6.0,11.0,60,0.00,,,0.00,weatherlink.com 1.10,2013-06-12 17:21:00,
2013-06-12 12:36:00,88.2,72.0,29.98,SSE,158,4.0,12.0,59,0.00,,,0.00,weatherlink.com 1.10,2013-06-12 17:36:00,
2013-06-12 12:51:00,88.9,73.0,29.98,South,191,6.0,10.0,60,0.00,,,0.00,weatherlink.com 1.10,2013-06-12 17:51:00,
2013-06-12 13:06:00,89.1,73.0,29.97,SW,219,6.0,13.0,59,0.00,,,0.00,weatherlink.com 1.10,2013-06-12 18:06:00,
2013-06-12 13:21:00,89.4,73.0,29.97,SSE,166,6.0,10.0,59,0.00,,,0.00,weatherlink.com 1.10,2013-06-12 18:21:00,
2013-06-12 13:36:00,89.9,74.0,29.96,SW,230,6.0,10.0,59,0.00,,,0.00,weatherlink.com 1.10,2013-06-12 18:36:00,
2013-06-12 13:51:00,90.4,73.0,29.96,WSW,246,10.0,12.0,57,0.00,,,0.00,weatherlink.com 1.10,2013-06-12 18:51:00,
2013-06-12 14:06:00,90.6,74.0,29.95,SSW,197,5.0,13.0,58,0.00,,,0.00,weatherlink.com 1.10,2013-06-12 19:06:00,
2013-06-12 14:21:00,90.6,73.0,29.94,SW,228,6.0,12.0,57,0.00,,,0.00,weatherlink.com 1.10,2013-06-12 19:21:00,
2013-06-12 14:36:00,90.8,72.0,29.94,SE,124,5.0,15.0,55,0.00,,,0.00,weatherlink.com 1.10,2013-06-12 19:36:00,
2013-06-12 14:51:00,90.9,74.0,29.94,ESE,118,9.0,12.0,57,0.00,,,0.00,weatherlink.com 1.10,2013-06-12 19:51:00,
2013-06-12 15:06:00,91.1,72.0,29.93,WSW,239,4.0,14.0,53,0.00,,,0.00,weatherlink.com 1.10,2013-06-12 20:06:00,
2013-06-12 15:21:00,91.5,73.0,29.93,WSW,240,4.0,12.0,55,0.00,,,0.00,weatherlink.com 1.10,2013-06-12 20:21:00,
2013-06-12 15:36:00,91.8,73.0,29.93,SW,215,3.0,14.0,54,0.00,,,0.00,weatherlink.com 1.10,2013-06-12 20:36:00,
2013-06-12 15:51:00,92.0,72.0,29.93,South,189,6.0,12.0,53,0.00,,,0.00,weatherlink.com 1.10,2013-06-12 20:51:00,
2013-06-12 16:06:00,92.1,73.0,29.92,SW,222,9.0,10.0,54,0.00,,,0.00,weatherlink.com 1.10,2013-06-12 21:06:00,
2013-06-12 16:21:00,92.2,74.0,29.91,SE,145,3.0,10.0,55,0.00,,,0.00,weatherlink.com 1.10,2013-06-12 21:21:00,
2013-06-12 16:36:00,92.3,74.0,29.91,SW,221,4.0,10.0,56,0.00,,,0.00,weatherlink.com 1.10,2013-06-12 21:36:00,
2013-06-12 16:51:00,91.9,73.0,29.91,SW,222,4.0,14.0,55,0.00,,,0.00,weatherlink.com 1.10,2013-06-12 21:51:00,
2013-06-12 17:06:00,92.0,75.0,29.90,SE,124,4.0,13.0,57,0.00,,,0.00,weatherlink.com 1.10,2013-06-12 22:06:00,
2013-06-12 17:21:00,91.8,74.0,29.90,SSE,160,6.0,14.0,57,0.00,,,0.00,weatherlink.com 1.10,2013-06-12 22:21:00,
2013-06-12 17:36:00,91.6,74.0,29.90,SSE,158,3.0,12.0,57,0.00,,,0.00,weatherlink.com 1.10,2013-06-12 22:36:00,
2013-06-12 17:51:00,91.9,74.0,29.89,SSE,159,6.0,10.0,57,0.00,,,0.00,weatherlink.com 1.10,2013-06-12 22:51:00,
2013-06-12 18:07:00,91.3,73.0,29.89,SW,218,5.0,9.0,56,0.00,,,0.00,weatherlink.com 1.10,2013-06-12 23:07:00,
2013-06-12 18:22:00,91.3,75.0,29.89,SSE,152,3.0,8.0,59,0.00,,,0.00,weatherlink.com 1.10,2013-06-12 23:22:00,
2013-06-12 18:37:00,90.8,74.0,29.89,WSW,250,2.0,9.0,58,0.00,,,0.00,weatherlink.com 1.10,2013-06-12 23:37:00,
2013-06-12 18:52:00,90.7,74.0,29.90,SSE,160,4.0,6.0,59,0.00,,,0.00,weatherlink.com 1.10,2013-06-12 23:52:00,
2013-06-12 19:07:00,90.1,73.0,29.90,SSE,159,2.0,7.0,58,0.00,,,0.00,weatherlink.com 1.10,2013-06-13 00:07:00,
2013-06-12 19:22:00,89.9,74.0,29.90,South,169,2.0,4.0,59,0.00,,,0.00,weatherlink.com 1.10,2013-06-13 00:22:00,
2013-06-12 19:37:00,89.0,74.0,29.90,SE,134,2.0,4.0,61,0.00,,,0.00,weatherlink.com 1.10,2013-06-13 00:37:00,
2013-06-12 19:52:00,87.4,74.0,29.90,SE,137,1.0,4.0,64,0.00,,,0.00,weatherlink.com 1.10,2013-06-13 00:52:00,
2013-06-12 20:07:00,85.5,74.0,29.90,SSE,149,0.0,3.0,68,0.00,,,0.00,weatherlink.com 1.10,2013-06-13 01:07:00,
2013-06-12 20:22:00,83.9,74.0,29.90,SSE,148,0.0,1.0,72,0.00,,,0.00,weatherlink.com 1.10,2013-06-13 01:22:00,
2013-06-12 20:37:00,82.2,73.0,29.90,SSE,165,0.0,1.0,74,0.00,,,0.00,weatherlink.com 1.10,2013-06-13 01:37:00,
2013-06-12 20:53:00,80.2,73.0,29.90,SSE,152,0.0,1.0,79,0.00,,,0.00,weatherlink.com 1.10,2013-06-13 01:53:00,
2013-06-12 21:07:00,79.5,73.0,29.91,SSE,152,0.0,0.0,79,0.00,,,0.00,weatherlink.com 1.10,2013-06-13 02:07:00,
2013-06-12 21:22:00,78.4,73.0,29.91,SSE,153,0.0,0.0,82,0.00,,,0.00,weatherlink.com 1.10,2013-06-13 02:22:00,
2013-06-12 21:37:00,78.5,73.0,29.91,SE,139,2.0,2.0,82,0.00,,,0.00,weatherlink.com 1.10,2013-06-13 02:37:00,
2013-06-12 21:52:00,79.3,73.0,29.92,SSE,152,1.0,3.0,80,0.00,,,0.00,weatherlink.com 1.10,2013-06-13 02:52:00,
2013-06-12 22:07:00,79.7,72.0,29.92,SSE,150,1.0,2.0,78,0.00,,,0.00,weatherlink.com 1.10,2013-06-13 03:07:00,
2013-06-12 22:22:00,79.7,72.0,29.93,South,170,2.0,3.0,78,0.00,,,0.00,weatherlink.com 1.10,2013-06-13 03:22:00,